WA4BPS Weather Reports


time (UTC)temp
F
wind
direction
speed
knots
gust
knots
rain 1hr
in
rain 24hr
in
rain mn
in
humidity
%
barometer
mb
20260503221343 62 328 0.9 9.6 0.00 0.00 0.00 41 1014.7
20260503221241 62 328 2.6 9.6 0.00 0.00 0.00 41 1014.7
20260503221140 62 318 4.3 9.6 0.00 0.00 0.00 41 1014.7
20260503221038 62 322 2.6 9.6 0.00 0.00 0.00 42 1014.7
20260503220936 62 323 2.6 9.6 0.00 0.00 0.00 42 1014.7
20260503220839 62 316 5.2 9.6 0.00 0.00 0.00 42 1014.7
20260503220758 62 319 4.3 9.6 0.00 0.00 0.00 41 1014.7
20260503220635 62 330 3.5 10.4 0.00 0.00 0.00 39 1014.7
20260503220534 62 316 3.5 11.3 0.00 0.00 0.00 40 1014.7
20260503220452 62 318 4.3 12.2 0.00 0.00 0.00 41 1014.7
20260503220351 62 332 5.2 12.2 0.00 0.00 0.00 41 1014.7
20260503220240 62 301 5.2 12.2 0.00 0.00 0.00 41 1014.7
20260503220152 62 330 4.3 12.2 0.00 0.00 0.00 41 1014.7
20260503220028 62 325 2.6 12.2 0.00 0.00 0.00 39 1014.7
20260503215931 62 318 5.2 12.2 0.00 0.00 0.00 39 1014.7
20260503215829 62 319 5.2 12.2 0.00 0.00 0.00 39 1014.8
20260503215728 62 312 7.0 12.2 0.00 0.00 0.00 40 1014.8
20260503215647 62 311 7.0 12.2 0.00 0.00 0.00 40 1014.8
20260503215544 62 329 6.1 12.2 0.00 0.00 0.00 42 1014.8
20260503215443 62 289 4.3 12.2 0.00 0.00 0.00 44 1014.8
20260503215342 62 322 5.2 12.2 0.00 0.00 0.00 43 1014.8
20260503215243 62 325 3.5 12.2 0.00 0.00 0.00 42 1014.8
20260503215142 62 319 0.9 12.2 0.00 0.00 0.00 41 1014.8
20260503215100 62 316 2.6 12.2 0.00 0.00 0.00 40 1014.8
20260503214937 62 298 3.5 12.2 0.00 0.00 0.00 42 1014.8
20260503214855 62 330 2.6 12.2 0.00 0.00 0.00 41 1014.8
20260503214734 62 332 4.3 12.2 0.00 0.00 0.00 40 1014.8
20260503214704 62 308 1.7 12.2 0.00 0.00 0.00 40 1014.8
20260503214601 62 330 1.7 12.2 0.00 0.00 0.00 40 1014.8
20260503214423 62 330 4.3 12.2 0.00 0.00 0.00 40 1014.8
20260503214324 62 328 5.2 12.2 0.00 0.00 0.00 39 1015.0
20260503214243 62 329 5.2 12.2 0.00 0.00 0.00 38 1015.0
20260503214141 62 320 2.6 10.4 0.00 0.00 0.00 40 1015.0
20260503214039 62 320 0.9 10.4 0.00 0.00 0.00 40 1015.0
20260503213939 62 311 1.7 10.4 0.00 0.00 0.00 40 1015.0
20260503213837 62 305 5.2 11.3 0.00 0.00 0.00 40 1015.0
20260503213736 62 318 5.2 11.3 0.00 0.00 0.00 41 1015.0
20260503213638 62 313 4.3 11.3 0.00 0.00 0.00 40 1015.0
20260503213557 62 320 1.7 11.3 0.00 0.00 0.00 38 1015.0
20260503213434 62 311 1.7 11.3 0.00 0.00 0.00 38 1015.0
20260503213331 62 325 4.3 11.3 0.00 0.00 0.00 40 1015.0
20260503213242 62 318 4.3 11.3 0.00 0.00 0.00 40 1015.0
20260503213152 62 332 5.2 11.3 0.00 0.00 0.00 41 1015.0
20260503213028 62 325 7.0 11.3 0.00 0.00 0.00 39 1015.0
20260503212931 62 333 7.8 11.3 0.00 0.00 0.00 41 1015.0
20260503212849 62 309 6.1 11.3 0.00 0.00 0.00 42 1015.2
20260503212744 62 316 4.3 11.3 0.00 0.00 0.00 41 1015.2
20260503212703 62 288 6.1 11.3 0.00 0.00 0.00 41 1015.2
20260503212542 62 318 5.2 11.3 0.00 0.00 0.00 40 1015.2
20260503212440 62 319 1.7 11.3 0.00 0.00 0.00 40 1015.2
20260503212338 62 328 1.7 11.3 0.00 0.00 0.00 41 1015.2
20260503212257 62 326 4.3 11.3 0.00 0.00 0.00 41 1015.2
20260503212134 62 318 3.5 11.3 0.00 0.00 0.00 41 1015.2
20260503212036 62 322 2.6 11.3 0.00 0.00 0.00 40 1015.2
20260503211934 62 322 4.3 11.3 0.00 0.00 0.00 39 1015.2
20260503211832 62 328 4.3 11.3 0.00 0.00 0.00 41 1015.2
20260503211742 62 329 7.0 11.3 0.00 0.00 0.00 42 1015.2
20260503211650 61 304 7.0 14.8 0.00 0.00 0.00 41 1015.2
20260503211528 61 323 4.3 14.8 0.00 0.00 0.00 41 1015.2
20260503211427 61 332 1.7 14.8 0.00 0.00 0.00 40 1015.2
20260503211329 61 330 1.7 14.8 0.00 0.00 0.00 39 1015.1
20260503211228 61 301 3.5 14.8 0.00 0.00 0.00 40 1015.1
20260503211126 62 318 7.0 14.8 0.00 0.00 0.00 39 1015.1
20260503211045 62 320 6.1 14.8 0.00 0.00 0.00 39 1015.1
20260503211004 62 328 5.2 14.8 0.00 0.00 0.00 40 1015.1
20260503210841 62 332 8.7 14.8 0.00 0.00 0.00 39 1015.1
20260503210739 62 318 9.6 14.8 0.00 0.00 0.00 41 1015.1
20260503210641 62 328 5.2 9.6 0.00 0.00 0.00 40 1015.1
20260503210539 62 294 4.3 12.2 0.00 0.00 0.00 40 1015.1
20260503210458 62 323 3.5 12.2 0.00 0.00 0.00 41 1015.1
20260503210416 62 312 3.5 12.2 0.00 0.00 0.00 40 1015.1
20260503210314 62 319 0.9 12.2 0.00 0.00 0.00 38 1015.1
20260503210224 62 308 0.9 12.2 0.00 0.00 0.00 38 1015.1
20260503210040 62 304 3.5 12.2 0.00 0.00 0.00 41 1015.1
20260503205940 62 323 1.7 12.2 0.00 0.00 0.00 44 1015.1
20260503205838 62 326 4.3 12.2 0.00 0.00 0.00 43 1015.3
20260503205741 62 325 7.0 12.2 0.00 0.00 0.00 42 1015.3
20260503205640 62 322 6.1 10.4 0.00 0.00 0.00 42 1015.3
20260503205538 62 318 5.2 9.6 0.00 0.00 0.00 41 1015.3
20260503205436 62 285 4.3 9.6 0.00 0.00 0.00 40 1015.3
20260503205335 62 326 2.6 9.6 0.00 0.00 0.00 40 1015.3
20260503205233 62 329 0.9 9.6 0.00 0.00 0.00 39 1015.3
20260503205136 62 328 5.2 9.6 0.00 0.00 0.00 40 1015.3
20260503205033 62 313 2.6 9.6 0.00 0.00 0.00 41 1015.3
20260503204932 62 316 4.3 9.6 0.00 0.00 0.00 41 1015.3
20260503204831 62 335 6.1 9.6 0.00 0.00 0.00 44 1015.3
20260503204743 62 311 3.5 7.0 0.00 0.00 0.00 44 1015.3
20260503204652 62 295 2.6 7.0 0.00 0.00 0.00 44 1015.3
20260503204551 62 336 1.7 7.0 0.00 0.00 0.00 43 1015.3
20260503204428 62 326 2.6 9.6 0.00 0.00 0.00 44 1015.3
20260503204351 62 332 6.1 14.8 0.00 0.00 0.00 43 1015.5
20260503204228 62 322 4.3 14.8 0.00 0.00 0.00 42 1015.5
20260503204127 62 330 0.9 14.8 0.00 0.00 0.00 42 1015.5
20260503204046 62 305 5.2 14.8 0.00 0.00 0.00 41 1015.5
20260503203943 62 329 2.6 14.8 0.00 0.00 0.00 42 1015.5
20260503203841 62 308 1.7 14.8 0.00 0.00 0.00 41 1015.5
20260503203740 62 287 3.5 14.8 0.00 0.00 0.00 41 1015.5
20260503203638 62 305 6.1 14.8 0.00 0.00 0.00 44 1015.5
20260503203540 62 305 7.8 14.8 0.00 0.00 0.00 43 1015.5
20260503203438 62 277 7.0 14.8 0.00 0.00 0.00 41 1015.5
20260503203339 62 318 4.3 13.9 0.00 0.00 0.00 41 1015.5
20260503203259 62 332 3.5 13.9 0.00 0.00 0.00 41 1015.5
20260503203229 62 323 3.5 13.9 0.00 0.00 0.00 43 1015.5
20260503203105 62 322 5.2 13.9 0.00 0.00 0.00 41 1015.5
20260503202942 62 311 4.3 13.9 0.00 0.00 0.00 44 1015.5
20260503202841 62 319 6.1 13.9 0.00 0.00 0.00 44 1015.9
20260503202802 62 296 3.5 13.9 0.00 0.00 0.00 42 1015.9
20260503202621 62 306 5.2 13.9 0.00 0.00 0.00 41 1015.9
20260503202543 62 309 3.5 13.9 0.00 0.00 0.00 43 1015.9
20260503202501 62 318 3.5 9.6 0.00 0.00 0.00 41 1015.9
20260503202337 62 299 2.6 9.6 0.00 0.00 0.00 41 1015.9
20260503202235 62 320 2.6 10.4 0.00 0.00 0.00 41 1015.9
20260503202134 62 335 6.1 10.4 0.00 0.00 0.00 41 1015.9
20260503202032 62 332 4.3 10.4 0.00 0.00 0.00 41 1015.9
20260503201935 62 318 7.0 10.4 0.00 0.00 0.00 44 1015.9
20260503201833 62 305 6.1 10.4 0.00 0.00 0.00 43 1015.9
20260503201752 62 302 5.2 10.4 0.00 0.00 0.00 44 1015.9
20260503201722 62 318 3.5 10.4 0.00 0.00 0.00 45 1015.9
20260503201542 61 322 2.6 10.4 0.00 0.00 0.00 46 1015.9
20260503201441 61 325 7.0 10.4 0.00 0.00 0.00 45 1015.9
20260503201400 61 330 6.1 10.4 0.00 0.00 0.00 44 1016.1
20260503201237 61 288 1.7 9.6 0.00 0.00 0.00 43 1016.1
20260503201138 61 312 0.9 13.0 0.00 0.00 0.00 42 1016.1
20260503201040 61 330 1.7 13.0 0.00 0.00 0.00 42 1016.1
20260503200938 61 318 0.0 13.0 0.00 0.00 0.00 43 1016.1
20260503200835 61 291 1.7 13.0 0.00 0.00 0.00 46 1016.1
20260503200733 61 322 2.6 13.0 0.00 0.00 0.00 46 1016.1
20260503200632 61 315 2.6 13.0 0.00 0.00 0.00 44 1016.1
20260503200531 61 315 0.9 13.0 0.00 0.00 0.00 47 1016.1
20260503200433 61 339 1.7 13.0 0.00 0.00 0.00 44 1016.1
20260503200331 61 326 6.1 13.0 0.00 0.00 0.00 46 1016.1
20260503200229 61 311 6.1 12.2 0.00 0.00 0.00 44 1016.1
20260503200159 61 318 2.6 9.6 0.00 0.00 0.00 44 1016.1
20260503200036 61 329 3.5 11.3 0.00 0.00 0.00 44 1016.1
20260503195934 61 318 2.6 11.3 0.00 0.00 0.00 43 1016.1
20260503195833 61 328 1.7 11.3 0.00 0.00 0.00 42 1016.3
20260503195754 61 323 2.6 11.3 0.00 0.00 0.00 41 1016.3
20260503195631 61 333 7.8 11.3 0.00 0.00 0.00 44 1016.3
20260503195549 61 325 5.2 11.3 0.00 0.00 0.00 44 1016.3
20260503195427 61 323 4.3 11.3 0.00 0.00 0.00 45 1016.3
20260503195326 61 302 3.5 11.3 0.00 0.00 0.00 45 1016.3
20260503195244 61 305 3.5 11.3 0.00 0.00 0.00 47 1016.3
20260503195142 61 313 3.5 11.3 0.00 0.00 0.00 47 1016.3
20260503195026 61 316 7.8 11.3 0.00 0.00 0.00 46 1016.3
20260503194943 61 299 7.8 11.3 0.00 0.00 0.00 48 1016.3
20260503194842 61 316 8.7 11.3 0.00 0.00 0.00 47 1016.3
20260503194741 61 308 6.1 10.4 0.00 0.00 0.00 46 1016.3
20260503194710 61 250 5.2 10.4 0.00 0.00 0.00 45 1016.3
20260503194528 61 308 3.5 9.6 0.00 0.00 0.00 45 1016.3
20260503194425 61 251 1.7 13.9 0.00 0.00 0.00 45 1016.3
20260503194325 61 251 3.5 13.9 0.00 0.00 0.00 46 1016.6
20260503194228 61 305 5.2 13.9 0.00 0.00 0.00 45 1016.6
20260503194126 61 330 0.9 13.9 0.00 0.00 0.00 43 1016.6
20260503194024 61 316 0.0 13.9 0.00 0.00 0.00 43 1016.6
20260503193942 61 308 0.9 13.9 0.00 0.00 0.00 42 1016.6
20260503193841 62 299 3.5 13.9 0.00 0.00 0.00 45 1016.6
20260503193759 62 335 7.0 14.8 0.00 0.00 0.00 45 1016.6
20260503193635 62 312 7.8 14.8 0.00 0.00 0.00 47 1016.6
20260503193532 62 323 6.1 14.8 0.00 0.00 0.00 46 1016.6
20260503193435 62 295 5.2 14.8 0.00 0.00 0.00 45 1016.6
20260503193335 62 319 7.8 14.8 0.00 0.00 0.00 44 1016.6
20260503193244 62 323 0.9 14.8 0.00 0.00 0.00 43 1016.6
20260503193154 62 332 0.9 14.8 0.00 0.00 0.00 44 1016.6
20260503193030 62 332 2.6 14.8 0.00 0.00 0.00 46 1016.6
20260503192927 62 277 7.0 14.8 0.00 0.00 0.00 46 1016.6
20260503192846 61 302 8.7 14.8 0.00 0.00 0.00 45 1016.8
20260503192743 61 280 4.3 12.2 0.00 0.00 0.00 44 1016.8
20260503192646 61 226 4.3 12.2 0.00 0.00 0.00 46 1016.8
20260503192543 61 304 4.3 12.2 0.00 0.00 0.00 47 1016.8
20260503192441 61 326 4.3 12.2 0.00 0.00 0.00 47 1016.8
20260503192340 61 326 3.5 12.2 0.00 0.00 0.00 46 1016.8
20260503192258 61 330 4.3 12.2 0.00 0.00 0.00 45 1016.8
20260503192136 61 289 5.2 12.2 0.00 0.00 0.00 44 1016.8
20260503192035 61 277 6.1 12.2 0.00 0.00 0.00 47 1016.8
20260503191955 61 311 7.0 12.2 0.00 0.00 0.00 47 1016.8
20260503191836 61 301 6.1 13.9 0.00 0.00 0.00 45 1016.8
20260503191755 61 330 3.5 13.9 0.00 0.00 0.00 44 1016.8
20260503191725 61 311 3.5 13.9 0.00 0.00 0.00 44 1016.8
20260503191541 62 323 0.9 13.9 0.00 0.00 0.00 43 1016.8
20260503191440 62 313 1.7 13.9 0.00 0.00 0.00 44 1016.8
20260503191337 62 288 1.7 13.9 0.00 0.00 0.00 45 1016.9
20260503191236 62 330 3.5 13.9 0.00 0.00 0.00 44 1016.9
20260503191135 62 316 5.2 13.9 0.00 0.00 0.00 46 1016.9
20260503191038 62 322 7.0 13.9 0.00 0.00 0.00 46 1016.9
20260503190941 62 326 7.0 13.9 0.00 0.00 0.00 43 1016.9
20260503190838 62 308 3.5 9.6 0.00 0.00 0.00 41 1016.9
20260503190737 62 329 0.9 7.0 0.00 0.00 0.00 41 1016.9
20260503190635 62 323 1.7 7.8 0.00 0.00 0.00 42 1016.9
20260503190553 62 329 3.5 7.8 0.00 0.00 0.00 46 1016.9
20260503190430 62 285 3.5 7.8 0.00 0.00 0.00 42 1016.9
20260503190352 63 320 0.9 7.8 0.00 0.00 0.00 41 1016.9
20260503190240 63 326 5.2 7.8 0.00 0.00 0.00 45 1016.9
20260503190149 63 316 4.3 10.4 0.00 0.00 0.00 41 1016.9
20260503190046 63 342 2.6 10.4 0.00 0.00 0.00 42 1016.9
20260503185924 63 287 0.0 10.4 0.00 0.00 0.00 44 1016.9
20260503185843 63 322 1.7 10.4 0.00 0.00 0.00 44 1017.1
20260503185741 63 275 4.3 10.4 0.00 0.00 0.00 44 1017.1
20260503185702 63 325 2.6 10.4 0.00 0.00 0.00 43 1017.1
20260503185539 63 313 1.7 10.4 0.00 0.00 0.00 45 1017.1
20260503185441 63 268 4.3 10.4 0.00 0.00 0.00 45 1017.1
20260503185401 62 296 7.8 10.4 0.00 0.00 0.00 47 1017.1
20260503185238 62 272 7.0 10.4 0.00 0.00 0.00 46 1017.1
20260503185137 62 254 3.5 10.4 0.00 0.00 0.00 46 1017.1
20260503185034 62 282 1.7 10.4 0.00 0.00 0.00 45 1017.1
20260503184953 62 275 2.6 10.4 0.00 0.00 0.00 45 1017.1
20260503184850 62 330 2.6 10.4 0.00 0.00 0.00 46 1017.1
20260503184811 62 328 2.6 10.4 0.00 0.00 0.00 44 1017.1
20260503184719 62 270 4.3 10.4 0.00 0.00 0.00 46 1017.1
20260503184604 62 299 3.5 10.4 0.00 0.00 0.00 43 1017.1
20260503184441 62 294 3.5 10.4 0.00 0.00 0.00 43 1017.1
20260503184339 62 306 3.5 10.4 0.00 0.00 0.00 45 1017.2
20260503184237 62 272 4.3 10.4 0.00 0.00 0.00 45 1017.2
20260503184135 62 315 4.3 11.3 0.00 0.00 0.00 42 1017.2
20260503184035 62 292 1.7 11.3 0.00 0.00 0.00 40 1017.2
20260503183933 62 311 3.5 11.3 0.00 0.00 0.00 40 1017.2
20260503183835 62 277 2.6 11.3 0.00 0.00 0.00 44 1017.2
20260503183733 62 274 5.2 11.3 0.00 0.00 0.00 44 1017.2
20260503183631 62 299 3.5 11.3 0.00 0.00 0.00 45 1017.2
20260503183530 62 271 1.7 11.3 0.00 0.00 0.00 44 1017.2
20260503183428 62 282 1.7 11.3 0.00 0.00 0.00 45 1017.2
20260503183329 62 282 3.5 11.3 0.00 0.00 0.00 45 1017.2
20260503183232 62 263 7.0 11.3 0.00 0.00 0.00 46 1017.2
20260503183203 62 272 7.0 11.3 0.00 0.00 0.00 45 1017.2
20260503183040 62 271 5.2 8.7 0.00 0.00 0.00 46 1017.2
20260503182937 61 316 3.5 7.0 0.00 0.00 0.00 47 1017.2
20260503182856 61 318 3.5 7.0 0.00 0.00 0.00 44 1017.4
20260503182755 61 322 1.7 7.0 0.00 0.00 0.00 43 1017.4
20260503182635 61 315 3.5 7.0 0.00 0.00 0.00 43 1017.4
20260503182533 61 322 2.6 7.0 0.00 0.00 0.00 41 1017.4
20260503182453 61 319 0.9 7.0 0.00 0.00 0.00 42 1017.4
20260503182334 61 325 0.9 8.7 0.00 0.00 0.00 42 1017.4
20260503182233 61 322 0.0 8.7 0.00 0.00 0.00 43 1017.4
20260503182131 61 298 0.0 8.7 0.00 0.00 0.00 44 1017.4
20260503182030 61 304 2.6 8.7 0.00 0.00 0.00 43 1017.4
20260503181928 61 322 5.2 8.7 0.00 0.00 0.00 42 1017.4
20260503181825 62 319 1.7 8.7 0.00 0.00 0.00 40 1017.4
20260503181740 62 312 0.9 8.7 0.00 0.00 0.00 40 1017.4
20260503181648 62 312 4.3 9.6 0.00 0.00 0.00 43 1017.4
20260503181545 62 272 4.3 9.6 0.00 0.00 0.00 44 1017.4
20260503181443 62 301 3.5 9.6 0.00 0.00 0.00 42 1017.4
20260503181341 62 325 3.5 9.6 0.00 0.00 0.00 40 1017.3
20260503181241 62 323 3.5 9.6 0.00 0.00 0.00 38 1017.3
20260503181139 62 309 2.6 9.6 0.00 0.00 0.00 44 1017.3
20260503181038 62 272 5.2 9.6 0.00 0.00 0.00 44 1017.3
20260503180957 62 281 5.2 9.6 0.00 0.00 0.00 42 1017.3
20260503180859 62 289 5.2 9.6 0.00 0.00 0.00 44 1017.3
20260503180737 62 328 3.5 9.6 0.00 0.00 0.00 42 1017.3
20260503180635 62 308 0.9 8.7 0.00 0.00 0.00 41 1017.3
20260503180534 62 330 0.9 8.7 0.00 0.00 0.00 43 1017.3
20260503180431 61 291 1.7 9.6 0.00 0.00 0.00 43 1017.3
20260503180330 61 292 2.6 9.6 0.00 0.00 0.00 43 1017.3
20260503180240 61 316 4.3 9.6 0.00 0.00 0.00 46 1017.3
20260503180153 61 277 5.2 9.6 0.00 0.00 0.00 45 1017.3
20260503180028 61 305 3.5 9.6 0.00 0.00 0.00 46 1017.3
20260503175927 61 330 3.5 9.6 0.00 0.00 0.00 44 1017.3
20260503175847 61 308 5.2 9.6 0.00 0.00 0.00 47 1017.6
20260503175724 61 311 2.6 9.6 0.00 0.00 0.00 47 1017.6
20260503175642 61 315 3.5 9.6 0.00 0.00 0.00 47 1017.6
20260503175540 61 328 4.3 9.6 0.00 0.00 0.00 44 1017.6
20260503175438 61 330 4.3 8.7 0.00 0.00 0.00 44 1017.6
20260503175340 60 277 0.0 7.0 0.00 0.00 0.00 43 1017.6
20260503175240 60 305 2.6 7.0 0.00 0.00 0.00 42 1017.6
20260503175137 60 325 1.7 7.0 0.00 0.00 0.00 41 1017.6
20260503175034 60 323 1.7 7.0 0.00 0.00 0.00 44 1017.6
20260503174932 60 330 0.9 7.0 0.00 0.00 0.00 43 1017.6
20260503174831 60 323 2.6 7.0 0.00 0.00 0.00 41 1017.6
20260503174749 61 330 5.2 7.0 0.00 0.00 0.00 39 1017.6
20260503174658 61 329 5.2 7.0 0.00 0.00 0.00 39 1017.6
20260503174538 61 325 4.3 7.0 0.00 0.00 0.00 41 1017.6
20260503174438 61 326 0.9 7.0 0.00 0.00 0.00 42 1017.6
20260503174355 61 301 1.7 7.0 0.00 0.00 0.00 40 1017.7
20260503174231 61 312 3.5 7.0 0.00 0.00 0.00 39 1017.7
20260503174131 61 320 0.9 7.0 0.00 0.00 0.00 43 1017.7
20260503174052 61 299 0.0 7.0 0.00 0.00 0.00 43 1017.7
20260503173929 61 299 1.7 7.0 0.00 0.00 0.00 44 1017.7
20260503173848 62 302 2.6 7.0 0.00 0.00 0.00 41 1017.7
20260503173730 62 315 2.6 7.0 0.00 0.00 0.00 41 1017.7
20260503173627 62 299 1.7 7.0 0.00 0.00 0.00 43 1017.7
20260503173546 62 295 0.9 7.0 0.00 0.00 0.00 43 1017.7
20260503173443 62 302 1.7 7.0 0.00 0.00 0.00 44 1017.7
20260503173402 62 292 4.3 7.0 0.00 0.00 0.00 44 1017.7
20260503173239 62 305 5.2 7.0 0.00 0.00 0.00 44 1017.7
20260503173209 62 296 3.5 8.7 0.00 0.00 0.00 44 1017.7
20260503173045 62 291 1.7 8.7 0.00 0.00 0.00 44 1017.7
20260503172942 62 280 1.7 8.7 0.00 0.00 0.00 42 1017.7
20260503172825 62 272 4.3 9.6 0.00 0.00 0.00 42 1017.9
20260503172743 62 264 1.7 9.6 0.00 0.00 0.00 39 1017.9
20260503172642 63 282 0.9 9.6 0.00 0.00 0.00 37 1017.9
20260503172541 63 267 1.7 9.6 0.00 0.00 0.00 41 1017.9
20260503172459 63 253 3.5 9.6 0.00 0.00 0.00 44 1017.9
20260503172337 63 287 5.2 9.6 0.00 0.00 0.00 42 1017.9
20260503172235 63 261 5.2 9.6 0.00 0.00 0.00 46 1017.9
20260503172153 63 296 5.2 9.6 0.00 0.00 0.00 42 1017.9
20260503172030 62 282 4.3 9.6 0.00 0.00 0.00 42 1017.9
20260503171932 62 299 0.0 6.1 0.00 0.00 0.00 41 1017.9
20260503171830 62 257 1.7 8.7 0.00 0.00 0.00 43 1017.9
20260503171741 62 284 2.6 8.7 0.00 0.00 0.00 42 1017.9
20260503171651 62 263 3.5 8.7 0.00 0.00 0.00 43 1017.9
20260503171527 62 270 4.3 10.4 0.00 0.00 0.00 43 1017.9
20260503171445 62 220 1.7 10.4 0.00 0.00 0.00 44 1017.9
20260503171342 62 188 0.9 10.4 0.00 0.00 0.00 44 1018.1
20260503171241 62 164 1.7 10.4 0.00 0.00 0.00 44 1018.1
20260503171144 62 320 3.5 10.4 0.00 0.00 0.00 45 1018.1
20260503171102 62 320 5.2 10.4 0.00 0.00 0.00 46 1018.1
20260503170940 61 298 6.1 10.4 0.00 0.00 0.00 46 1018.1
20260503170858 61 280 4.3 10.4 0.00 0.00 0.00 45 1018.1
20260503170736 61 226 6.1 10.4 0.00 0.00 0.00 45 1018.1
20260503170634 61 313 6.1 10.4 0.00 0.00 0.00 47 1018.1
20260503170532 61 295 3.5 7.8 0.00 0.00 0.00 47 1018.1
20260503170431 61 313 5.2 7.8 0.00 0.00 0.00 47 1018.1
20260503170333 61 322 3.5 7.8 0.00 0.00 0.00 47 1018.1
20260503170251 60 326 2.6 7.8 0.00 0.00 0.00 48 1018.1
20260503170201 60 251 1.7 7.8 0.00 0.00 0.00 47 1018.1
20260503160157 56 316 2.6 7.0 0.00 0.00 0.00 54 1018.4
20260503150935 53 236 3.5 7.0 0.00 0.00 0.00 60 1018.6
20260503150839 53 330 5.2 7.0 0.00 0.00 0.00 62 1018.6
20260503150737 53 332 2.6 6.1 0.00 0.00 0.00 62 1018.6
20260503150634 52 332 2.6 6.1 0.00 0.00 0.00 60 1018.6
20260503150531 52 360 2.6 7.0 0.00 0.00 0.00 62 1018.6
20260503150450 52 44 0.9 7.0 0.00 0.00 0.00 62 1018.6
20260503150327 52 10 1.7 8.7 0.00 0.00 0.00 60 1018.6
20260503150257 52 226 2.6 8.7 0.00 0.00 0.00 61 1018.6
20260503150147 52 69 1.7 8.7 0.00 0.00 0.00 61 1018.6
20260503140235 49 332 4.3 6.1 0.00 0.00 0.00 71 1018.5
20260503140146 49 318 3.5 6.1 0.00 0.00 0.00 71 1018.5
20260503131336 46 329 4.3 5.2 0.00 0.00 0.00 78 1018.1
20260503131255 46 68 3.5 5.2 0.00 0.00 0.00 80 1018.1
20260503131156 46 329 2.6 5.2 0.00 0.00 0.00 80 1018.1
20260503131034 46 223 1.7 5.2 0.00 0.00 0.00 80 1018.1
20260503130931 46 316 0.9 5.2 0.00 0.00 0.00 80 1018.1
20260503130831 46 222 0.9 5.2 0.00 0.00 0.00 80 1018.1
20260503130751 46 318 1.7 5.2 0.00 0.00 0.00 80 1018.1
20260503130628 46 332 1.7 5.2 0.00 0.00 0.00 80 1018.1
20260503130526 46 267 4.3 5.2 0.00 0.00 0.00 80 1018.1
20260503130428 46 200 2.6 5.2 0.00 0.00 0.00 80 1018.1
20260503130326 46 288 3.5 5.2 0.00 0.00 0.00 80 1018.1
20260503130237 46 323 4.3 5.2 0.00 0.00 0.00 80 1018.1
20260503130146 46 295 3.5 5.2 0.00 0.00 0.00 80 1018.1
20260503120143 44 333 6.1 9.6 0.00 0.00 0.00 86 1017.5
20260503110824 44 270 6.1 9.6 0.00 0.00 0.00 90 1016.7
20260503110742 44 308 7.0 9.6 0.00 0.00 0.00 90 1016.7
20260503110642 44 260 6.1 9.6 0.00 0.00 0.00 90 1016.7
20260503110541 44 333 5.2 9.6 0.00 0.00 0.00 90 1016.7
20260503110459 44 65 7.8 9.6 0.00 0.00 0.00 90 1016.7
20260503110336 44 219 6.1 9.6 0.00 0.00 0.00 90 1016.7
20260503110240 44 319 7.0 9.6 0.00 0.00 0.00 90 1016.7
20260503110210 44 199 6.1 9.6 0.00 0.00 0.00 90 1016.7
20260503100247 43 80 7.0 11.3 0.00 0.00 0.00 90 1016.5
20260503100218 43 100 7.8 11.3 0.00 0.00 0.00 90 1016.5
20260503090424 44 329 6.1 9.6 0.00 0.00 0.00 90 1016.3
20260503090343 44 326 6.1 9.6 0.00 0.00 0.00 90 1016.3
20260503090242 44 284 4.3 9.6 0.00 0.00 0.00 90 1016.3
20260503090152 44 333 3.5 9.6 0.00 0.00 0.00 90 1016.3
20260503081529 44 333 4.3 7.0 0.00 0.00 0.00 89 1016.1
20260503081426 44 333 4.3 7.0 0.00 0.00 0.00 89 1016.1
20260503081330 44 333 4.3 7.0 0.00 0.00 0.00 89 1015.8
20260503081229 44 335 5.2 7.0 0.00 0.00 0.00 89 1015.8
20260503081128 45 319 4.3 7.0 0.00 0.00 0.00 89 1015.8
20260503081025 45 335 2.6 7.0 0.00 0.00 0.00 89 1015.8
20260503080924 45 322 3.5 7.0 0.00 0.00 0.00 88 1015.8
20260503080843 45 315 3.5 7.0 0.00 0.00 0.00 88 1015.8
20260503080740 45 335 5.2 7.0 0.00 0.00 0.00 88 1015.8
20260503080658 45 326 4.3 7.0 0.00 0.00 0.00 88 1015.8
20260503080541 45 171 5.2 7.8 0.00 0.00 0.00 88 1015.8
20260503080459 45 328 6.1 7.8 0.00 0.00 0.00 88 1015.8
20260503080356 45 184 5.2 8.7 0.00 0.00 0.00 88 1015.8
20260503080233 45 333 3.5 8.7 0.00 0.00 0.00 88 1015.8
20260503080203 45 171 4.3 8.7 0.00 0.00 0.00 88 1015.8
20260503072941 45 332 4.3 9.6 0.00 0.00 0.00 87 1015.6
20260503072840 45 320 6.1 9.6 0.00 0.00 0.00 87 1015.5
20260503072741 45 328 6.1 9.6 0.00 0.00 0.00 87 1015.5
20260503072640 45 333 6.1 8.7 0.00 0.00 0.00 87 1015.5
20260503072541 45 329 5.2 8.7 0.00 0.00 0.00 87 1015.5
20260503072439 45 333 4.3 8.7 0.00 0.00 0.00 87 1015.5
20260503072357 45 196 3.5 8.7 0.00 0.00 0.00 87 1015.5
20260503072235 45 332 5.2 8.7 0.00 0.00 0.00 87 1015.5
20260503072154 45 312 5.2 8.7 0.00 0.00 0.00 87 1015.5
20260503072030 45 333 6.1 8.7 0.00 0.00 0.00 87 1015.5
20260503071930 45 247 6.1 8.7 0.00 0.00 0.00 87 1015.5
20260503071836 45 232 5.2 8.7 0.00 0.00 0.00 87 1015.5
20260503071733 45 277 3.5 8.7 0.00 0.00 0.00 86 1015.5
20260503071704 45 323 5.2 8.7 0.00 0.00 0.00 86 1015.5
20260503071543 45 329 6.1 8.7 0.00 0.00 0.00 86 1015.5
20260503071441 45 333 7.0 8.7 0.00 0.00 0.00 86 1015.5
20260503071339 45 316 6.1 8.7 0.00 0.00 0.00 86 1015.5
20260503071237 45 191 5.2 8.7 0.00 0.00 0.00 86 1015.5
20260503071200 45 330 4.3 8.7 0.00 0.00 0.00 86 1015.5
20260503071041 45 312 5.2 8.7 0.00 0.00 0.00 86 1015.5
20260503070939 45 104 6.1 9.6 0.00 0.00 0.00 86 1015.5
20260503070837 45 175 6.1 9.6 0.00 0.00 0.00 86 1015.5
20260503070756 45 311 5.2 9.6 0.00 0.00 0.00 86 1015.5
20260503070632 45 220 6.1 10.4 0.00 0.00 0.00 86 1015.5
20260503070531 45 315 3.5 10.4 0.00 0.00 0.00 86 1015.5
20260503070430 45 229 4.3 10.4 0.00 0.00 0.00 86 1015.5
20260503070333 45 326 6.1 10.4 0.00 0.00 0.00 86 1015.5
20260503070303 45 265 7.0 10.4 0.00 0.00 0.00 86 1015.5
20260503070151 45 274 6.1 10.4 0.00 0.00 0.00 85 1015.5
20260503060329 47 284 5.2 10.4 0.00 0.00 0.00 81 1015.1
20260503060244 47 304 4.3 10.4 0.00 0.00 0.00 81 1015.1
20260503060154 47 330 6.1 10.4 0.00 0.00 0.00 81 1015.1
20260503055127 47 325 7.0 10.4 0.00 0.00 0.00 80 1015.1
20260503055026 47 319 4.3 11.3 0.00 0.00 0.00 80 1015.1
20260503054924 47 330 5.2 11.3 0.00 0.00 0.00 80 1015.1
20260503054827 47 291 6.1 11.3 0.00 0.00 0.00 79 1015.1
20260503054726 47 227 5.2 11.3 0.00 0.00 0.00 79 1015.1
20260503054656 47 192 5.2 11.3 0.00 0.00 0.00 79 1015.1
20260503054534 47 333 7.0 11.3 0.00 0.00 0.00 79 1015.1
20260503054432 47 335 7.0 12.2 0.00 0.00 0.00 79 1015.1
20260503054330 47 280 6.1 12.2 0.00 0.00 0.00 79 1015.1
20260503054249 47 257 9.6 12.2 0.00 0.00 0.00 79 1015.1
20260503054206 47 240 7.8 12.2 0.00 0.00 0.00 79 1015.1
20260503054104 47 261 6.1 12.2 0.00 0.00 0.00 79 1015.1
20260503053943 47 282 6.1 12.2 0.00 0.00 0.00 79 1015.1
20260503053841 47 113 4.3 12.2 0.00 0.00 0.00 78 1015.1
20260503053739 47 227 7.8 12.2 0.00 0.00 0.00 78 1015.1
20260503053657 47 199 10.4 12.2 0.00 0.00 0.00 78 1015.1
20260503053555 47 280 9.6 12.2 0.00 0.00 0.00 78 1015.1
20260503053452 47 360 6.1 10.4 0.00 0.00 0.00 78 1015.1
20260503053351 47 312 6.1 10.4 0.00 0.00 0.00 77 1015.1
20260503053240 47 315 2.6 10.4 0.00 0.00 0.00 77 1015.1
20260503053149 47 302 3.5 10.4 0.00 0.00 0.00 77 1015.1
20260503053029 47 323 7.0 10.4 0.00 0.00 0.00 77 1015.1
20260503052928 47 271 6.1 9.6 0.00 0.00 0.00 77 1015.1
20260503052847 47 247 5.2 9.6 0.00 0.00 0.00 77 1015.0
20260503052725 47 254 6.1 9.6 0.00 0.00 0.00 77 1015.0
20260503052643 47 315 7.0 9.6 0.00 0.00 0.00 77 1015.0
20260503052601 47 239 6.1 9.6 0.00 0.00 0.00 77 1015.0
20260503052438 47 251 6.1 9.6 0.00 0.00 0.00 77 1015.0
20260503052336 48 250 6.1 9.6 0.00 0.00 0.00 77 1015.0
20260503052240 48 320 6.1 9.6 0.00 0.00 0.00 77 1015.0
20260503052138 48 326 4.3 9.6 0.00 0.00 0.00 77 1015.0
20260503052056 48 280 4.3 9.6 0.00 0.00 0.00 76 1015.0
20260503051934 48 90 6.1 9.6 0.00 0.00 0.00 76 1015.0
20260503051833 48 319 5.2 9.6 0.00 0.00 0.00 76 1015.0
20260503051732 48 288 5.2 9.6 0.00 0.00 0.00 76 1015.0
20260503051701 48 186 4.3 10.4 0.00 0.00 0.00 76 1015.0
20260503051538 48 152 3.5 10.4 0.00 0.00 0.00 76 1015.0
20260503051441 48 339 4.3 10.4 0.00 0.00 0.00 75 1015.0
20260503051339 48 332 4.3 10.4 0.00 0.00 0.00 75 1015.0
20260503051242 48 178 4.3 10.4 0.00 0.00 0.00 75 1015.0
20260503051159 48 236 4.3 10.4 0.00 0.00 0.00 75 1015.0
20260503051035 48 277 3.5 10.4 0.00 0.00 0.00 75 1015.0
20260503050934 48 299 4.3 11.3 0.00 0.00 0.00 75 1015.0
20260503050834 48 268 6.1 11.3 0.00 0.00 0.00 75 1015.0
20260503050735 48 223 5.2 11.3 0.00 0.00 0.00 75 1015.0
20260503050635 48 322 5.2 11.3 0.00 0.00 0.00 75 1015.0
20260503050531 48 254 7.0 11.3 0.00 0.00 0.00 75 1015.0
20260503050429 48 270 5.2 13.0 0.00 0.00 0.00 75 1015.0
20260503050327 48 268 6.1 13.0 0.00 0.00 0.00 75 1015.0
20260503050226 48 179 4.3 13.0 0.00 0.00 0.00 75 1015.0
20260503050158 48 162 6.1 13.0 0.00 0.00 0.00 75 1015.0
20260503050038 48 267 6.1 13.0 0.00 0.00 0.00 74 1015.0
20260503045938 48 316 7.0 13.0 0.00 0.00 0.00 74 1015.0
20260503045837 48 337 7.0 13.0 0.00 0.00 0.00 74 1015.0
20260503045734 48 340 9.6 13.0 0.00 0.00 0.00 74 1015.0
20260503045632 49 219 6.1 12.2 0.00 0.00 0.00 74 1015.0
20260503045531 49 333 4.3 12.2 0.00 0.00 0.00 74 1015.0
20260503045430 49 116 7.8 12.2 0.00 0.00 0.00 74 1015.0
20260503045352 49 120 6.1 12.2 0.00 0.00 0.00 74 1015.0
20260503045231 49 295 4.3 12.2 0.00 0.00 0.00 74 1015.0
20260503045129 49 209 7.8 12.2 0.00 0.00 0.00 74 1015.0
20260503045027 49 185 6.1 12.2 0.00 0.00 0.00 73 1015.0
20260503044946 49 311 8.7 12.2 0.00 0.00 0.00 73 1015.0
20260503044843 49 333 7.8 11.3 0.00 0.00 0.00 73 1015.0
20260503044741 49 294 7.0 10.4 0.00 0.00 0.00 73 1015.0
20260503044710 49 162 7.0 10.4 0.00 0.00 0.00 73 1015.0
20260503044546 49 182 6.1 10.4 0.00 0.00 0.00 73 1015.0
20260503044444 49 316 5.2 10.4 0.00 0.00 0.00 73 1015.0
20260503044341 49 347 7.0 10.4 0.00 0.00 0.00 73 1014.9
20260503044238 49 323 7.0 10.4 0.00 0.00 0.00 73 1014.9
20260503044136 49 330 7.0 10.4 0.00 0.00 0.00 72 1014.9
20260503044034 49 213 6.1 10.4 0.00 0.00 0.00 72 1014.9
20260503043955 49 171 3.5 10.4 0.00 0.00 0.00 72 1014.9
20260503043831 49 304 6.1 10.4 0.00 0.00 0.00 72 1014.9
20260503043730 49 258 5.2 10.4 0.00 0.00 0.00 72 1014.9
20260503043648 49 227 4.3 10.4 0.00 0.00 0.00 72 1014.9
20260503043553 49 217 7.8 10.4 0.00 0.00 0.00 72 1014.9
20260503043430 49 313 7.0 10.4 0.00 0.00 0.00 72 1014.9
20260503043329 49 270 7.0 10.4 0.00 0.00 0.00 72 1014.9
20260503043238 49 333 3.5 10.4 0.00 0.00 0.00 72 1014.9
20260503043148 49 240 4.3 10.4 0.00 0.00 0.00 72 1014.9
20260503043026 49 144 7.0 10.4 0.00 0.00 0.00 72 1014.9
20260503042924 49 251 4.3 10.4 0.00 0.00 0.00 72 1014.9
20260503042843 49 294 6.1 10.4 0.00 0.00 0.00 72 1014.8
20260503042804 49 267 7.0 11.3 0.00 0.00 0.00 71 1014.8
20260503042641 49 304 7.0 12.2 0.00 0.00 0.00 71 1014.8
20260503042540 49 330 6.1 12.2 0.00 0.00 0.00 71 1014.8
20260503042440 49 174 4.3 12.2 0.00 0.00 0.00 71 1014.8
20260503042338 49 304 5.2 12.2 0.00 0.00 0.00 71 1014.8
20260503042257 49 257 6.1 12.2 0.00 0.00 0.00 71 1014.8
20260503042133 49 312 6.1 12.2 0.00 0.00 0.00 71 1014.8
20260503042035 49 333 6.1 12.2 0.00 0.00 0.00 71 1014.8
20260503041934 49 332 6.1 12.2 0.00 0.00 0.00 71 1014.8
20260503041831 49 333 8.7 12.2 0.00 0.00 0.00 71 1014.8
20260503041730 49 256 8.7 11.3 0.00 0.00 0.00 71 1014.8
20260503041700 49 168 6.1 11.3 0.00 0.00 0.00 71 1014.8
20260503041538 50 275 4.3 11.3 0.00 0.00 0.00 70 1014.8
20260503041438 50 113 6.1 11.3 0.00 0.00 0.00 70 1014.8
20260503041356 50 316 4.3 8.7 0.00 0.00 0.00 70 1014.9
20260503041241 50 328 5.2 8.7 0.00 0.00 0.00 70 1014.9
20260503041138 50 203 6.1 8.7 0.00 0.00 0.00 70 1014.9
20260503041057 50 264 6.1 8.7 0.00 0.00 0.00 70 1014.9
20260503040933 50 330 3.5 8.7 0.00 0.00 0.00 70 1014.9
20260503040831 50 195 3.5 8.7 0.00 0.00 0.00 70 1014.9
20260503040730 50 325 3.5 8.7 0.00 0.00 0.00 70 1014.9
20260503040630 50 282 5.2 9.6 0.00 0.00 0.00 69 1014.9
20260503040538 50 150 6.1 11.3 0.00 0.00 0.00 69 1014.9
20260503040335 50 167 4.3 11.3 0.00 0.00 0.00 69 1014.9
20260503040234 50 127 4.3 11.3 0.00 0.00 0.00 69 1014.9
20260503040205 50 333 5.2 11.3 0.00 0.00 0.00 69 1014.9
20260503040042 50 251 5.2 11.3 0.00 0.00 0.00 69 1014.9
20260503035941 50 316 6.1 11.3 0.00 0.00 0.00 69 1014.9
20260503035824 50 88 7.0 11.3 0.00 0.00 0.00 69 1014.8
20260503035742 50 302 7.8 11.3 0.00 0.00 0.00 69 1014.8
20260503035640 50 182 7.8 11.3 0.00 0.00 0.00 69 1014.8
20260503035539 50 332 4.3 9.6 0.00 0.00 0.00 69 1014.8
20260503035439 50 212 5.2 9.6 0.00 0.00 0.00 69 1014.8
20260503035336 50 150 3.5 9.6 0.00 0.00 0.00 69 1014.8
20260503035255 50 332 1.7 9.6 0.00 0.00 0.00 69 1014.8
20260503035136 50 335 5.2 9.6 0.00 0.00 0.00 68 1014.8
20260503035035 50 234 3.5 9.6 0.00 0.00 0.00 68 1014.8
20260503034932 50 229 6.1 9.6 0.00 0.00 0.00 68 1014.8
20260503034831 50 328 7.0 9.6 0.00 0.00 0.00 68 1014.8
20260503034801 50 291 3.5 8.7 0.00 0.00 0.00 68 1014.8
20260503034650 50 109 5.2 8.7 0.00 0.00 0.00 68 1014.8
20260503034529 50 335 4.3 8.7 0.00 0.00 0.00 69 1014.8
20260503034446 50 244 2.6 8.7 0.00 0.00 0.00 68 1014.8
20260503034344 50 298 3.5 8.7 0.00 0.00 0.00 68 1014.7
20260503034245 50 309 3.5 9.6 0.00 0.00 0.00 68 1014.7
20260503034205 50 333 2.6 10.4 0.00 0.00 0.00 68 1014.7
20260503034103 50 229 0.9 10.4 0.00 0.00 0.00 68 1014.7
20260503033940 50 82 3.5 10.4 0.00 0.00 0.00 68 1014.7
20260503033839 50 96 6.1 10.4 0.00 0.00 0.00 68 1014.7
20260503033738 50 295 4.3 10.4 0.00 0.00 0.00 68 1014.7
20260503033636 50 332 4.3 10.4 0.00 0.00 0.00 68 1014.7
20260503033533 50 271 4.3 10.4 0.00 0.00 0.00 68 1014.7
20260503033435 50 93 5.2 10.4 0.00 0.00 0.00 68 1014.7
20260503033334 50 308 7.8 11.3 0.00 0.00 0.00 68 1014.7
20260503033243 51 333 5.2 11.3 0.00 0.00 0.00 68 1014.7
20260503033152 51 167 4.3 11.3 0.00 0.00 0.00 67 1014.7
20260503033028 51 322 5.2 11.3 0.00 0.00 0.00 67 1014.7
20260503032927 51 185 6.1 11.3 0.00 0.00 0.00 67 1014.7
20260503032825 51 240 3.5 11.3 0.00 0.00 0.00 67 1014.7
20260503032749 51 92 6.1 11.3 0.00 0.00 0.00 66 1014.7
20260503032628 51 93 6.1 11.3 0.00 0.00 0.00 66 1014.7
20260503032545 51 208 7.8 11.3 0.00 0.00 0.00 66 1014.7
20260503032443 51 178 7.0 11.3 0.00 0.00 0.00 66 1014.7
20260503032341 51 215 5.2 11.3 0.00 0.00 0.00 66 1014.7
20260503032240 51 301 7.8 11.3 0.00 0.00 0.00 66 1014.7
20260503032159 51 289 7.8 10.4 0.00 0.00 0.00 66 1014.7
20260503032037 51 332 5.2 10.4 0.00 0.00 0.00 66 1014.7
20260503031955 51 6 6.1 10.4 0.00 0.00 0.00 65 1014.7
20260503031857 51 312 6.1 10.4 0.00 0.00 0.00 65 1014.7
20260503031815 51 271 4.3 10.4 0.00 0.00 0.00 66 1014.7
20260503031701 51 247 5.2 11.3 0.00 0.00 0.00 65 1014.7
20260503031539 51 311 4.3 11.3 0.00 0.00 0.00 65 1014.7
20260503031438 51 326 6.1 11.3 0.00 0.00 0.00 65 1014.7
20260503031337 51 359 4.3 12.2 0.00 0.00 0.00 65 1014.7
20260503031236 51 333 5.2 12.2 0.00 0.00 0.00 65 1014.7
20260503031134 51 305 4.3 12.2 0.00 0.00 0.00 65 1014.7
20260503031036 51 281 1.7 12.2 0.00 0.00 0.00 65 1014.7
20260503030954 51 199 5.2 12.2 0.00 0.00 0.00 64 1014.7
20260503030832 51 333 7.0 12.2 0.00 0.00 0.00 64 1014.7
20260503030732 52 233 6.1 12.2 0.00 0.00 0.00 65 1014.7
20260503030650 52 52 3.5 12.2 0.00 0.00 0.00 64 1014.7
20260503030527 52 333 7.0 12.2 0.00 0.00 0.00 64 1014.7
20260503030427 52 54 6.1 12.2 0.00 0.00 0.00 64 1014.7
20260503030325 52 167 6.1 9.6 0.00 0.00 0.00 64 1014.7
20260503030227 52 199 4.3 9.6 0.00 0.00 0.00 64 1014.7
20260503030158 52 333 3.5 9.6 0.00 0.00 0.00 64 1014.7
20260503030034 52 330 2.6 9.6 0.00 0.00 0.00 64 1014.7
20260503025932 52 332 5.2 9.6 0.00 0.00 0.00 63 1014.7
20260503025831 52 168 6.1 9.6 0.00 0.00 0.00 63 1014.6
20260503025729 52 79 6.1 10.4 0.00 0.00 0.00 63 1014.6
20260503025647 52 332 4.3 10.4 0.00 0.00 0.00 63 1014.6
20260503025605 52 332 4.3 10.4 0.00 0.00 0.00 63 1014.6
20260503025425 52 311 2.6 10.4 0.00 0.00 0.00 63 1014.6
20260503025324 52 223 6.1 10.4 0.00 0.00 0.00 63 1014.6
20260503025241 52 217 5.2 10.4 0.00 0.00 0.00 63 1014.6
20260503025140 52 213 4.3 10.4 0.00 0.00 0.00 62 1014.6
20260503025039 52 305 2.6 10.4 0.00 0.00 0.00 62 1014.6
20260503024937 52 133 6.1 10.4 0.00 0.00 0.00 62 1014.6
20260503024835 52 169 7.0 10.4 0.00 0.00 0.00 63 1014.6
20260503024738 52 210 5.2 10.4 0.00 0.00 0.00 63 1014.6
20260503024647 52 346 6.1 10.4 0.00 0.00 0.00 62 1014.6
20260503024525 52 350 5.2 10.4 0.00 0.00 0.00 62 1014.6
20260503024442 52 329 4.3 10.4 0.00 0.00 0.00 62 1014.6
20260503024340 53 95 4.3 10.4 0.00 0.00 0.00 62 1014.3
20260503024239 53 330 5.2 10.4 0.00 0.00 0.00 62 1014.3
20260503024136 53 127 7.8 10.4 0.00 0.00 0.00 63 1014.3
20260503024054 53 217 4.3 10.4 0.00 0.00 0.00 63 1014.3
20260503023935 53 232 4.3 11.3 0.00 0.00 0.00 63 1014.3
20260503023833 53 333 4.3 11.3 0.00 0.00 0.00 63 1014.3
20260503023731 53 145 1.7 11.3 0.00 0.00 0.00 62 1014.3
20260503023650 53 344 4.3 11.3 0.00 0.00 0.00 62 1014.3
20260503023547 53 268 6.1 11.3 0.00 0.00 0.00 62 1014.3
20260503023426 53 147 6.1 11.3 0.00 0.00 0.00 61 1014.3
20260503023324 53 203 7.8 11.3 0.00 0.00 0.00 62 1014.3
20260503023238 53 253 7.0 11.3 0.00 0.00 0.00 62 1014.3
20260503023147 53 344 6.1 11.3 0.00 0.00 0.00 62 1014.3
20260503023044 53 260 7.0 11.3 0.00 0.00 0.00 62 1014.3
20260503023003 53 254 4.3 11.3 0.00 0.00 0.00 61 1014.3
20260503022839 53 333 3.5 11.3 0.00 0.00 0.00 60 1014.1
20260503022739 53 237 7.0 11.3 0.00 0.00 0.00 61 1014.1
20260503022638 53 282 5.2 11.3 0.00 0.00 0.00 60 1014.1
20260503022536 53 330 5.2 11.3 0.00 0.00 0.00 61 1014.1
20260503022455 53 332 2.6 13.0 0.00 0.00 0.00 61 1014.1
20260503022356 53 329 3.5 13.0 0.00 0.00 0.00 61 1014.1
20260503022236 53 167 4.3 13.0 0.00 0.00 0.00 60 1014.1
20260503022134 53 230 6.1 13.0 0.00 0.00 0.00 60 1014.1
20260503022033 53 227 7.0 14.8 0.00 0.00 0.00 60 1014.1
20260503021931 53 339 4.3 14.8 0.00 0.00 0.00 59 1014.1
20260503021830 53 332 6.1 14.8 0.00 0.00 0.00 60 1014.1
20260503021752 54 333 5.2 14.8 0.00 0.00 0.00 60 1014.1
20260503021700 54 241 8.7 14.8 0.00 0.00 0.00 59 1014.1
20260503021542 54 330 8.7 14.8 0.00 0.00 0.00 59 1014.1
20260503021441 54 239 5.2 14.8 0.00 0.00 0.00 59 1014.1
20260503021340 54 248 7.8 17.4 0.00 0.00 0.00 58 1014.0
20260503021240 54 333 9.6 17.4 0.00 0.00 0.00 59 1014.0
20260503021139 54 346 7.8 17.4 0.00 0.00 0.00 59 1014.0
20260503021037 54 112 7.0 17.4 0.00 0.00 0.00 58 1014.0
20260503020940 54 230 7.8 17.4 0.00 0.00 0.00 58 1014.0
20260503020838 54 83 9.6 17.4 0.00 0.00 0.00 58 1014.0
20260503020737 54 284 8.7 17.4 0.00 0.00 0.00 58 1014.0
20260503020635 54 328 7.0 17.4 0.00 0.00 0.00 57 1014.0
20260503020534 54 328 9.6 17.4 0.00 0.00 0.00 58 1014.0
20260503020432 54 312 5.2 18.2 0.00 0.00 0.00 57 1014.0
20260503020351 54 329 7.0 18.2 0.00 0.00 0.00 57 1014.0
20260503020244 54 346 7.8 18.2 0.00 0.00 0.00 56 1014.0
20260503020153 54 360 10.4 18.2 0.00 0.00 0.00 56 1014.0
20260503020049 55 195 10.4 18.2 0.00 0.00 0.00 56 1014.0
20260503015925 55 47 11.3 18.2 0.00 0.00 0.00 56 1014.0
20260503015825 55 216 11.3 18.2 0.00 0.00 0.00 56 1013.6
20260503015724 55 75 5.2 18.2 0.00 0.00 0.00 55 1013.6
20260503015641 55 333 7.0 18.2 0.00 0.00 0.00 55 1013.6
20260503015540 55 353 12.2 18.2 0.00 0.00 0.00 55 1013.6
20260503015443 55 343 7.0 11.3 0.00 0.00 0.00 56 1013.6
20260503015341 55 174 7.0 11.3 0.00 0.00 0.00 55 1013.6
20260503015240 55 332 7.0 11.3 0.00 0.00 0.00 55 1013.6
20260503015138 55 353 6.1 11.3 0.00 0.00 0.00 55 1013.6
20260503015036 55 329 3.5 11.3 0.00 0.00 0.00 54 1013.6
20260503014936 55 335 3.5 11.3 0.00 0.00 0.00 54 1013.6
20260503014854 55 336 4.3 11.3 0.00 0.00 0.00 53 1013.6
20260503014751 55 347 7.0 11.3 0.00 0.00 0.00 53 1013.6
20260503014724 55 339 6.1 11.3 0.00 0.00 0.00 53 1013.6
20260503014540 55 330 6.1 11.3 0.00 0.00 0.00 53 1013.6
20260503014439 55 360 6.1 11.3 0.00 0.00 0.00 53 1013.6
20260503014338 55 346 6.1 8.7 0.00 0.00 0.00 53 1013.3
20260503014235 55 332 6.1 8.7 0.00 0.00 0.00 53 1013.3
20260503014135 55 337 6.1 8.7 0.00 0.00 0.00 54 1013.3
20260503014052 55 346 2.6 8.7 0.00 0.00 0.00 54 1013.3
20260503013951 55 330 3.5 9.6 0.00 0.00 0.00 53 1013.3
20260503013832 55 333 5.2 9.6 0.00 0.00 0.00 52 1013.3
20260503013730 55 344 4.3 9.6 0.00 0.00 0.00 52 1013.3
20260503013628 55 336 2.6 9.6 0.00 0.00 0.00 53 1013.3
20260503013526 55 337 4.3 10.4 0.00 0.00 0.00 53 1013.3
20260503013425 55 326 2.6 10.4 0.00 0.00 0.00 52 1013.3
20260503013343 55 333 3.5 10.4 0.00 0.00 0.00 53 1013.3
20260503013234 55 337 5.2 10.4 0.00 0.00 0.00 52 1013.3
20260503013147 55 326 6.1 10.4 0.00 0.00 0.00 52 1013.3
20260503013024 55 329 3.5 10.4 0.00 0.00 0.00 51 1013.3
20260503012943 55 333 4.3 10.4 0.00 0.00 0.00 53 1013.3
20260503012841 55 323 4.3 10.4 0.00 0.00 0.00 53 1013.1
20260503012739 55 323 5.2 10.4 0.00 0.00 0.00 52 1013.1
20260503012638 55 337 4.3 10.4 0.00 0.00 0.00 51 1013.1
20260503012558 55 333 3.5 10.4 0.00 0.00 0.00 51 1013.1
20260503012435 55 335 4.3 10.4 0.00 0.00 0.00 52 1013.1
20260503012337 55 335 6.1 10.4 0.00 0.00 0.00 51 1013.1
20260503012235 55 340 5.2 8.7 0.00 0.00 0.00 50 1013.1
20260503012154 55 318 4.3 9.6 0.00 0.00 0.00 52 1013.1
20260503012032 55 335 2.6 9.6 0.00 0.00 0.00 51 1013.1
20260503011931 55 337 1.7 9.6 0.00 0.00 0.00 52 1013.1
20260503011851 55 332 3.5 9.6 0.00 0.00 0.00 52 1013.1
20260503011730 55 346 5.2 9.6 0.00 0.00 0.00 51 1013.1
20260503011700 55 335 6.1 9.6 0.00 0.00 0.00 52 1013.1
20260503011541 55 322 5.2 9.6 0.00 0.00 0.00 51 1013.1
20260503011440 56 330 6.1 9.6 0.00 0.00 0.00 50 1013.1
20260503011357 56 335 6.1 9.6 0.00 0.00 0.00 51 1013.1
20260503011235 56 330 3.5 9.6 0.00 0.00 0.00 51 1013.1
20260503011135 56 329 2.6 9.6 0.00 0.00 0.00 51 1013.1
20260503011033 56 339 3.5 9.6 0.00 0.00 0.00 51 1013.1
20260503010932 56 342 2.6 9.6 0.00 0.00 0.00 51 1013.1
20260503010835 56 342 2.6 9.6 0.00 0.00 0.00 50 1013.1
20260503010732 56 343 7.0 9.6 0.00 0.00 0.00 51 1013.1
20260503010631 56 335 6.1 9.6 0.00 0.00 0.00 51 1013.1
20260503010529 56 352 4.3 8.7 0.00 0.00 0.00 51 1013.1
20260503010428 56 326 3.5 8.7 0.00 0.00 0.00 50 1013.1
20260503010327 56 332 4.3 8.7 0.00 0.00 0.00 49 1013.1
20260503010231 56 357 3.5 8.7 0.00 0.00 0.00 50 1013.1
20260503010202 56 333 3.5 8.7 0.00 0.00 0.00 49 1013.1
20260503010040 57 349 3.5 8.7 0.00 0.00 0.00 49 1013.1
20260503005938 57 330 4.3 8.7 0.00 0.00 0.00 49 1013.1
20260503005837 57 335 5.2 11.3 0.00 0.00 0.00 49 1013.1
20260503005737 57 337 5.2 11.3 0.00 0.00 0.00 48 1013.1
20260503005638 57 339 5.2 11.3 0.00 0.00 0.00 48 1013.1
20260503005541 57 335 5.2 15.6 0.00 0.00 0.00 49 1013.1
20260503005439 57 114 5.2 15.6 0.00 0.00 0.00 49 1013.1
20260503005336 57 337 6.1 15.6 0.00 0.00 0.00 48 1013.1
20260503005236 57 354 5.2 15.6 0.00 0.00 0.00 48 1013.1
20260503005135 57 330 2.6 15.6 0.00 0.00 0.00 48 1013.1
20260503005033 57 54 7.0 15.6 0.00 0.00 0.00 48 1013.1
20260503004952 57 329 4.3 15.6 0.00 0.00 0.00 48 1013.1
20260503004832 57 330 8.7 15.6 0.00 0.00 0.00 48 1013.1
20260503004755 57 332 10.4 15.6 0.00 0.00 0.00 48 1013.1
20260503004703 57 354 10.4 15.6 0.00 0.00 0.00 48 1013.1
20260503004540 57 350 9.6 13.9 0.00 0.00 0.00 47 1013.1
20260503004438 57 158 7.8 13.9 0.00 0.00 0.00 47 1013.1
20260503004337 57 333 6.1 12.2 0.00 0.00 0.00 47 1012.8
20260503004239 57 346 7.0 12.2 0.00 0.00 0.00 47 1012.8
20260503004137 57 329 7.8 12.2 0.00 0.00 0.00 47 1012.8
20260503004043 57 342 6.1 12.2 0.00 0.00 0.00 47 1012.8
20260503003940 57 288 5.2 11.3 0.00 0.00 0.00 47 1012.8
20260503003838 57 353 4.3 11.3 0.00 0.00 0.00 47 1012.8
20260503003737 57 335 3.5 11.3 0.00 0.00 0.00 47 1012.8
20260503003634 57 335 5.2 11.3 0.00 0.00 0.00 47 1012.8
20260503003535 57 326 6.1 11.3 0.00 0.00 0.00 46 1012.8
20260503003454 57 326 7.8 11.3 0.00 0.00 0.00 47 1012.8
20260503003336 57 346 5.2 9.6 0.00 0.00 0.00 46 1012.8
20260503003236 57 326 5.2 9.6 0.00 0.00 0.00 46 1012.8
20260503003206 57 349 4.3 9.6 0.00 0.00 0.00 47 1012.8
20260503003043 57 336 5.2 9.6 0.00 0.00 0.00 45 1012.8
20260503002941 57 346 2.6 7.8 0.00 0.00 0.00 46 1012.8
20260503002840 58 333 2.6 7.8 0.00 0.00 0.00 45 1012.5
20260503002738 58 352 4.3 7.8 0.00 0.00 0.00 45 1012.5
20260503002639 58 332 4.3 7.8 0.00 0.00 0.00 44 1012.5
20260503002539 58 346 4.3 7.8 0.00 0.00 0.00 46 1012.5
20260503002438 58 339 3.5 7.8 0.00 0.00 0.00 45 1012.5
20260503002336 58 340 2.6 7.8 0.00 0.00 0.00 45 1012.5
20260503002234 58 347 4.3 9.6 0.00 0.00 0.00 45 1012.5
20260503002156 58 330 4.3 9.6 0.00 0.00 0.00 45 1012.5
20260503002035 58 340 5.2 9.6 0.00 0.00 0.00 45 1012.5
20260503001953 58 326 3.5 9.6 0.00 0.00 0.00 44 1012.5
20260503001855 58 328 5.2 9.6 0.00 0.00 0.00 44 1012.5
20260503001733 58 332 4.3 9.6 0.00 0.00 0.00 44 1012.5
20260503001704 58 330 4.3 10.4 0.00 0.00 0.00 44 1012.5
20260503001522 58 347 5.2 10.4 0.00 0.00 0.00 44 1012.5
20260503001425 58 332 7.0 11.3 0.00 0.00 0.00 44 1012.5
20260503001343 58 339 5.2 11.3 0.00 0.00 0.00 43 1012.4
20260503001240 58 318 7.0 11.3 0.00 0.00 0.00 45 1012.4
20260503001159 58 330 3.5 11.3 0.00 0.00 0.00 43 1012.4
20260503001040 58 335 5.2 11.3 0.00 0.00 0.00 42 1012.4
20260503000937 58 340 7.0 11.3 0.00 0.00 0.00 43 1012.4
20260503000836 58 336 7.0 12.2 0.00 0.00 0.00 43 1012.4
20260503000733 58 323 4.3 12.2 0.00 0.00 0.00 43 1012.4
20260503000632 58 325 6.1 12.2 0.00 0.00 0.00 42 1012.4
20260503000530 58 316 6.1 12.2 0.00 0.00 0.00 42 1012.4
20260503000449 58 359 6.1 12.2 0.00 0.00 0.00 44 1012.4
20260503000347 58 322 8.7 12.2 0.00 0.00 0.00 44 1012.4
20260503000240 59 312 6.1 12.2 0.00 0.00 0.00 43 1012.4
20260503000149 59 332 2.6 12.2 0.00 0.00 0.00 44 1012.4
20260503000026 59 336 7.0 12.2 0.00 0.00 0.00 44 1012.4
20260502235944 59 315 8.7 12.2 0.00 0.00 0.00 44 1012.4
20260502235902 59 332 5.2 9.6 0.00 0.00 0.00 42 1012.3
20260502235740 59 330 4.3 9.6 0.00 0.00 0.00 42 1012.3
20260502235638 59 323 6.1 11.3 0.00 0.00 0.00 43 1012.3
20260502235538 59 330 6.1 11.3 0.00 0.00 0.00 43 1012.3
20260502235440 59 333 6.1 11.3 0.00 0.00 0.00 42 1012.3
20260502235339 59 325 6.1 12.2 0.00 0.00 0.00 42 1012.3
20260502235238 59 339 4.3 12.2 0.00 0.00 0.00 44 1012.3
20260502235158 59 330 3.5 12.2 0.00 0.00 0.00 42 1012.3
20260502235035 59 305 4.3 12.2 0.00 0.00 0.00 42 1012.3
20260502234934 59 325 4.3 12.2 0.00 0.00 0.00 42 1012.3
20260502234832 59 322 6.1 12.2 0.00 0.00 0.00 42 1012.3
20260502234734 59 339 6.1 16.5 0.00 0.00 0.00 43 1012.3
20260502234703 59 330 5.2 16.5 0.00 0.00 0.00 41 1012.3
20260502234539 59 332 7.8 16.5 0.00 0.00 0.00 41 1012.3
20260502234438 59 313 7.0 16.5 0.00 0.00 0.00 41 1012.3
20260502234334 59 339 4.3 16.5 0.00 0.00 0.00 41 1012.1
20260502234234 59 336 7.8 16.5 0.00 0.00 0.00 42 1012.1
20260502234133 59 325 7.0 16.5 0.00 0.00 0.00 42 1012.1
20260502234051 59 336 6.1 16.5 0.00 0.00 0.00 42 1012.1
20260502233927 59 325 7.8 16.5 0.00 0.00 0.00 42 1012.1
20260502233827 59 332 8.7 16.5 0.00 0.00 0.00 44 1012.1
20260502233725 59 332 7.0 13.9 0.00 0.00 0.00 42 1012.1
20260502233624 59 309 6.1 10.4 0.00 0.00 0.00 43 1012.1
20260502233543 59 312 6.1 10.4 0.00 0.00 0.00 43 1012.1
20260502233501 59 333 4.3 10.4 0.00 0.00 0.00 41 1012.1
20260502233336 59 325 6.1 10.4 0.00 0.00 0.00 42 1012.1
20260502233255 59 326 5.2 10.4 0.00 0.00 0.00 41 1012.1
20260502233204 59 328 4.3 10.4 0.00 0.00 0.00 42 1012.1
20260502233101 59 332 4.3 10.4 0.00 0.00 0.00 40 1012.1
20260502232943 59 332 4.3 10.4 0.00 0.00 0.00 41 1012.1
20260502232841 59 329 5.2 10.4 0.00 0.00 0.00 41 1012.0
20260502232741 59 325 7.0 10.4 0.00 0.00 0.00 41 1012.0
20260502232640 59 335 7.8 9.6 0.00 0.00 0.00 41 1012.0
20260502232558 59 333 6.1 10.4 0.00 0.00 0.00 42 1012.0
20260502232456 59 347 4.3 12.2 0.00 0.00 0.00 41 1012.0
20260502232336 60 322 3.5 12.2 0.00 0.00 0.00 41 1012.0
20260502232255 60 329 4.3 12.2 0.00 0.00 0.00 43 1012.0
20260502232157 60 333 2.6 12.2 0.00 0.00 0.00 40 1012.0
20260502232035 60 320 4.3 13.9 0.00 0.00 0.00 40 1012.0
20260502231935 60 323 1.7 13.9 0.00 0.00 0.00 40 1012.0
20260502231832 60 326 4.3 13.9 0.00 0.00 0.00 41 1012.0
20260502231802 60 333 7.0 13.9 0.00 0.00 0.00 39 1012.0
20260502231649 60 322 7.8 13.9 0.00 0.00 0.00 40 1012.0
20260502231527 60 330 8.7 13.9 0.00 0.00 0.00 41 1012.0
20260502231426 60 322 6.1 13.9 0.00 0.00 0.00 39 1012.0
20260502231328 60 326 6.1 13.9 0.00 0.00 0.00 39 1012.0
20260502231226 60 291 7.0 13.9 0.00 0.00 0.00 38 1012.0
20260502231126 60 332 7.8 13.9 0.00 0.00 0.00 39 1012.0
20260502231043 60 330 4.3 13.9 0.00 0.00 0.00 39 1012.0
20260502230941 60 323 4.3 13.9 0.00 0.00 0.00 38 1012.0
20260502230859 60 306 7.0 13.9 0.00 0.00 0.00 39 1012.0
20260502230735 60 313 6.1 13.9 0.00 0.00 0.00 41 1012.0
20260502230638 60 330 6.1 13.9 0.00 0.00 0.00 40 1012.0
20260502230537 60 322 5.2 13.9 0.00 0.00 0.00 42 1012.0
20260502230436 60 336 7.8 13.9 0.00 0.00 0.00 42 1012.0
20260502230333 60 318 5.2 12.2 0.00 0.00 0.00 40 1012.0
20260502230243 60 316 5.2 12.2 0.00 0.00 0.00 40 1012.0
20260502230152 61 328 6.1 12.2 0.00 0.00 0.00 42 1012.0
20260502230029 61 329 4.3 10.4 0.00 0.00 0.00 41 1012.0
20260502225931 61 344 4.3 10.4 0.00 0.00 0.00 41 1012.0
20260502225830 61 342 3.5 10.4 0.00 0.00 0.00 42 1011.9
20260502225729 61 339 1.7 10.4 0.00 0.00 0.00 41 1011.9
20260502225647 61 330 6.1 10.4 0.00 0.00 0.00 41 1011.9
20260502225524 61 343 2.6 10.4 0.00 0.00 0.00 41 1011.9
20260502225442 61 325 3.5 10.4 0.00 0.00 0.00 42 1011.9
20260502225341 61 325 4.3 10.4 0.00 0.00 0.00 42 1011.9
20260502225141 61 325 7.0 10.4 0.00 0.00 0.00 41 1011.9
20260502225040 61 326 5.2 8.7 0.00 0.00 0.00 41 1011.9
20260502224958 61 349 4.3 8.7 0.00 0.00 0.00 41 1011.9
20260502224919 61 319 4.3 8.7 0.00 0.00 0.00 40 1011.9
20260502224817 61 332 2.6 8.7 0.00 0.00 0.00 40 1011.9
20260502224724 61 325 1.7 8.7 0.00 0.00 0.00 41 1011.9
20260502224540 61 354 1.7 11.3 0.00 0.00 0.00 40 1011.9
20260502224438 61 352 4.3 11.3 0.00 0.00 0.00 40 1011.9
20260502224337 61 24 3.5 11.3 0.00 0.00 0.00 40 1011.8
20260502224239 61 340 0.9 11.3 0.00 0.00 0.00 40 1011.8
20260502224157 61 335 3.5 11.3 0.00 0.00 0.00 39 1011.8
20260502224035 61 347 4.3 11.3 0.00 0.00 0.00 39 1011.8
20260502223932 61 353 5.2 11.3 0.00 0.00 0.00 40 1011.8
20260502223832 61 340 7.0 11.3 0.00 0.00 0.00 40 1011.8
20260502223729 61 328 7.0 11.3 0.00 0.00 0.00 41 1011.8
20260502223628 61 343 5.2 11.3 0.00 0.00 0.00 42 1011.8
20260502223548 61 335 4.3 11.3 0.00 0.00 0.00 40 1011.8
20260502223429 61 305 7.0 11.3 0.00 0.00 0.00 39 1011.8
20260502223329 61 330 6.1 11.3 0.00 0.00 0.00 40 1011.8
20260502223239 61 323 7.0 11.3 0.00 0.00 0.00 40 1011.8
20260502223149 61 333 9.6 11.3 0.00 0.00 0.00 39 1011.8
20260502223028 61 344 3.5 11.3 0.00 0.00 0.00 40 1011.8
20260502222926 61 330 7.8 11.3 0.00 0.00 0.00 40 1011.8
20260502222824 61 113 4.3 11.3 0.00 0.00 0.00 40 1011.9
20260502222727 60 337 5.2 11.3 0.00 0.00 0.00 40 1011.9
20260502222645 60 346 2.6 11.3 0.00 0.00 0.00 40 1011.9
20260502222543 60 353 1.7 11.3 0.00 0.00 0.00 40 1011.9
20260502222440 60 326 3.5 11.3 0.00 0.00 0.00 38 1011.9
20260502222356 60 335 4.3 11.3 0.00 0.00 0.00 39 1011.9
20260502222253 60 353 4.3 11.3 0.00 0.00 0.00 39 1011.9
20260502222130 60 360 4.3 9.6 0.00 0.00 0.00 38 1011.9
20260502222028 60 360 6.1 9.6 0.00 0.00 0.00 38 1011.9
20260502221925 60 329 7.8 9.6 0.00 0.00 0.00 41 1011.9
20260502221827 60 332 2.6 8.7 0.00 0.00 0.00 39 1011.9
20260502221726 60 342 3.5 8.7 0.00 0.00 0.00 39 1011.9
20260502221655 60 44 3.5 9.6 0.00 0.00 0.00 39 1011.9
20260502221534 60 326 3.5 10.4 0.00 0.00 0.00 38 1011.9
20260502221433 60 330 3.5 10.4 0.00 0.00 0.00 40 1011.9